Regional Weather Roundup
Issued by NWS Little Rock, AR

Home | Current Version | Previous Version | Graphics & Text | Print | Product List | Glossary On
Versions: 1 2 3 4 5 6 7 8 9 10 11 12 13 14 15 16 17 18 19 20 21 22 23 24 25 26 27 28 29 30 31
000
ASUS44 KLZK 272105
RWRLZK

WEATHER ROUNDUP FOR ARKANSAS
NATIONAL WEATHER SERVICE LITTLE ROCK AR
400 PM CDT TUE SEP 27 2016

NOTE: "FAIR" INDICATES FEW OR NO CLOUDS BELOW 12,000 FEET WITH NO
SIGNIFICANT WEATHER AND/OR OBSTRUCTIONS TO VISIBILITY.

ARZ001-003-010-029-272200-
NORTHWEST ARKANSAS

CITY           SKY/WX    TMP DP  RH WIND       PRES   REMARKS
FAYETTEVILLE   SUNNY     77  46  33 CALM      30.02F
FORT SMITH     SUNNY     82  37  20 CALM      30.00F
HARRISON       SUNNY     77  45  32 NW5       30.01F
BENTONVILLE    SUNNY     79  43  27 W8        30.02F
ROGERS         SUNNY     77  47  34 W9        30.02F
SILOAM SPGS    SUNNY     81  43  26 W9        30.01F
HIGHFILL       SUNNY     81  46  29 VRB5      30.01F
$$

ARZ004-005-016-272200-
NORTH CENTRAL ARKANSAS

CITY           SKY/WX    TMP DP  RH WIND       PRES   REMARKS
BATESVILLE     SUNNY     79  45  29 CALM      29.98F
FLIPPIN        SUNNY     81  45  28 W5        29.97F
MTN HOME       SUNNY     78  47  33 VRB3      29.99F
$$

ARZ040-041-272200-
WEST CENTRAL ARKANSAS

CITY           SKY/WX    TMP DP  RH WIND       PRES   REMARKS
MENA           SUNNY     81  46  30 W3        30.02F
MOUNT IDA      SUNNY     78  45  30 VRB3      29.99F
$$

ARZ009-017-025-026-028-272200-
NORTHEAST ARKANSAS

CITY           SKY/WX    TMP DP  RH WIND       PRES   REMARKS
CORNING          N/A     79  50  36 W3        29.96F
JONESBORO      SUNNY     81  40  23 VRB5      29.96F
NEWPORT        SUNNY     79  43  27 N3        29.97F
WALNUT RIDGE   SUNNY     79  45  29 W3        29.96F
BLYTHEVILLE    SUNNY     81  42  25 NW5       29.96F
NW BLYTHEVILLE SUNNY     81  41  24 VRB3      29.96F
$$

ARZ022-023-033-042-044-272200-
CENTRAL ARKANSAS

CITY           SKY/WX    TMP DP  RH WIND       PRES   REMARKS
LITTLE ROCK    MOSUNNY   82  42  24 N3        29.99F
N LITTLE ROCK    N/A     77  45  32 N5        29.98F
JACKSONVILLE   SUNNY     80  46  29 VRB2      29.98F
SEARCY         SUNNY     80  47  31 S5        29.99F
HOT SPRINGS    SUNNY     79  46  31 W6        29.99F
RUSSELLVILLE   SUNNY     79  46  31 W3        29.99F
$$

ARZ036-272200-
EAST ARKANSAS

CITY           SKY/WX    TMP DP  RH WIND       PRES   REMARKS
WEST MEMPHIS   SUNNY     81  35  19 NE5       29.95F
$$

ARZ050-053-066-070-073-272200-
SOUTHWEST ARKANSAS

CITY           SKY/WX    TMP DP  RH WIND       PRES   REMARKS
ARKADELPHIA    FAIR      80  52  37 VRB3      30.00F
TEXARKANA      MOSUNNY   79  50  36 CALM      30.00F
EL DORADO      SUNNY     79  51  37 VRB3      30.00F
DE QUEEN       SUNNY     81  47  30 NW5       29.98F
$$

ARZ056-057-069-272200-
SOUTHEAST ARKANSAS

CITY           SKY/WX    TMP DP  RH WIND       PRES   REMARKS
PINE BLUFF     SUNNY     78  41  26 W5        29.99F
STUTTGART      SUNNY     79  41  25 NW8       29.99F
MONTICELLO     SUNNY     80  52  37 VRB5      29.98F

$$






USA.gov is the U.S. government's official web portal to all federal, state and local government web resources and services.